This is the latest recevied weather packets stored in our database for station/object VR2MW-X. If no packets are shown the sender has not sent any weather packets the latest 10 day(s).
| Time | Temp. | Humidity | Pressure | Rain* | Wind** | Luminosity | Snow |
|---|---|---|---|---|---|---|---|
| 1777965920 | 22.78° C | 85% | 1013.1 hPa | - | - | - | - |
| 1777965308 | 22.78° C | 86% | 1013.1 hPa | - | - | - | - |
| 1777964694 | 22.78° C | 86% | 1013.1 hPa | - | - | - | - |
| 1777964084 | 22.78° C | 88% | 1013.2 hPa | - | - | - | - |
| 1777963473 | 22.78° C | 86% | 1013.5 hPa | - | - | - | - |
| 1777962862 | 22.78° C | 86% | 1013.5 hPa | - | - | - | - |
| 1777962251 | 22.78° C | 87% | 1013.5 hPa | - | - | - | - |
| 1777961640 | 22.78° C | 87% | 1013.6 hPa | - | - | - | - |
| 1777961028 | 22.78° C | 89% | 1013.7 hPa | - | - | - | - |
| 1777960417 | 22.22° C | 89% | 1013.6 hPa | - | - | - | - |
| 1777959806 | 22.22° C | 88% | 1013.7 hPa | - | - | - | - |
| 1777959196 | 22.22° C | 90% | 1014.1 hPa | - | - | - | - |
| 1777958585 | 22.22° C | 91% | 1014.2 hPa | - | - | - | - |
| 1777957975 | 22.22° C | 93% | 1014.3 hPa | - | - | - | - |
| 1777957364 | 21.11° C | 91% | 1014.5 hPa | - | - | - | - |
| 1777956754 | 21.11° C | 91% | 1014.3 hPa | - | - | - | - |
| 1777956143 | 21.11° C | 92% | 1014.7 hPa | - | - | - | - |
| 1777955533 | 21.11° C | 94% | 1014.7 hPa | - | - | - | - |
| 1777954922 | 21.11° C | 92% | 1015.1 hPa | - | - | - | - |
| 1777954312 | 21.11° C | 95% | 1015.3 hPa | - | - | - | - |
| 1777953701 | 21.11° C | 95% | 1015.2 hPa | - | - | - | - |
| 1777953091 | 20° C | 94% | 1015.2 hPa | - | - | - | - |
| 1777952481 | 20° C | 95% | 1015.2 hPa | - | - | - | - |
| 1777951870 | 20° C | 94% | 1015.3 hPa | - | - | - | - |
| 1777951260 | 20° C | 96% | 1015.6 hPa | - | - | - | - |
* Rain since midnight (hover to see other rain measurements)
** Current wind speed in m/s (hover to see current wind gust speed)